Weather in Wrangell

United States     56°27′41″N   132°22′04″W
temp.,
°C
wind,
m/s
gust,
m/s
humid.,
%
clouds,
%
prec.,
mm/h
press.,
hPa
HPBL,
m
25 may, wed
wed2501:00+4ne1183100 0.0 101111
04:00+4ne1182100 0.0 101121
07:00+6n1171100 0.0 1010165
10:00+9w1159100 0.0 1010680
13:00+11wsw1155100 0.0 10111038
16:00+11wsw215483 0.0 10101046
19:00+10sw126151 0.1 1012619
22:00+7ese117838 0.1 101310
26 may, thu
thu2601:00+6s118272 0.0 101310
04:00+7s118595 0.0 101424
07:00+8nne008197 0.0 1013236
10:00+10w116973 0.3 1012706
13:00+11sw116594 0.6 1011790
16:00+12wsw116289 1.1 1009879
19:00+11w1163100 0.1 1008366
22:00+8nne1174100 0.1 100710
27 may, fri
fri2701:00+8ne1174100 0.0 100613
04:00+7ene117592 0.0 100611
07:00+9nne0167100 0.0 1005112
10:00+12wsw1155100 0.0 1005586
13:00+14wsw2151100 0.0 10061148
16:00+13sw2251100 0.0 1005854
19:00+11sw2366100 0.0 1006291
22:00+9sw128093 0.0 100857
28 may, sat
sat2801:00+7ssw118893 0.0 100714
04:00+6sse119292 0.0 100712
07:00+8s118224 0.0 1008257
10:00+10sw117279 0.0 1008710
13:00+10s227570 0.0 1009588
16:00+11sw227299 0.0 1009684
19:00+11ssw127476 0.0 1009570
22:00+9s118540 0.0 101025
29 may, sun
sun2901:00+7sse119328 0.0 101213
04:00+6ese11940 0.0 101210
07:00+9sw01820 0.0 1013217
10:00+13w11658 0.0 1013725
13:00+15wsw225531 0.3 10131166
16:00+16sw124740 0.6 10131450
19:00+14ssw126053 0.1 1014298
22:00+12sse1175100 0.3 101616